Погода в Быдгоще

Польша     53°07′31″N   18°02′27″E
темп.,
°C
ветер,
м/с
пор.,
м/с
влажн.,
%
обл.,
%
осадки,
мм/ч
давл.,
гПа
погр.,
м
25 февраля, чт
чт2501:00+6зюз23940 0.0 102942
04:00+6зюз23960 0.0 102843
07:00+6юз23960 0.0 102837
10:00+10юз37890 0.0 1027223
13:00+13юз47760 0.0 1026399
16:00+13ююз39780 0.0 1024241
19:00+9зюз37870 0.0 1024150
22:00+8зюз39910 0.0 1025208
26 февраля, пт
пт2601:00+7з38950 0.0 1026194
04:00+6з3109656 0.0 1025370
07:00+4з398778 0.0 1026367
10:00+6з51174100 0.0 1026593
13:00+8зсз61160100 0.0 10261183
16:00+8з5116467 0.0 10251278
19:00+6зсз6127674 0.0 10261128
22:00+5зсз61279100 0.0 10251104
27 февраля, сб
сб2701:00+5зсз6128194 0.0 10261042
04:00+4сз51182100 0.0 1026877
07:00+2сз4119182 0.0 1028437
10:00+5сз59766 0.0 1030591
13:00+8сз58583 0.0 10311103
16:00+7сз47630 0.0 10311019
19:00+3ссз38780 0.0 1032274
22:00+1ссз26870 0.0 1033166
28 февраля, вс
вс2801:000сз25860 0.0 1034114
04:000сз25830 0.0 1034121
07:000зсз248128 0.0 1034105
10:00+5зсз35630 0.0 1035301
13:00+8зсз34540 0.0 1034611
16:00+7з25630 0.0 1033165
19:00+3зсз23800 0.0 103439
22:00+2зсз23930 0.0 103569
1 марта, пн
пн101:00+1сз23940 0.0 103553
04:00+1ссз129623 0.0 103467
07:00+2с129162 0.0 103548
10:00+4всв117899 0.0 1036430
13:00+6юв226856 0.0 1036518
16:00+7ю22710 0.0 1035468
19:00+3ююз12900 0.0 103524
22:00+1ююз12930 0.0 103622